Find NORSAT-2

NORAD ID: 42828 Int'l Des: 2017-042 Owner: STATS Country: N operational
LEOCIRCULARRETROGRADESSO

Live Position

Loading 3D Globe...

About NORSAT-2

Description loading...

Upcoming Passes

Passes for default location (London). Set your location on the main map for personalized predictions.

Altitude History

Loading altitude history...

Two-Line Element Set

1 42828U 17042D 26110.40911242 .00008818 00000-0 40352-3 0 9993
2 42828 97.4015 284.8272 0008697 250.0419 109.9880 15.20719742478952
Epoch: Apr 20, 2026 • Age: 15 hours

Current Status

Altitude 505.6 km
Velocity 7.61 km/s
Sub-Earth Point -11.45°S, 118.24°W
Launch Date Jul 14, 2017
Age 8.7 years
Type other

Technical Details

Classification Payload
Mass 30.00 kg
Dry Mass 30.00 kg
Total Mass 30.00 kg
Length 0.40 m
Diameter 0.20 m
Span 0.92 m
Shape Box +2 pan+4 ant
Manufacturer UTIAS
Bus Type GNB
Phase Status In Orbit
Owner/State STATS/N

Most Searched